Weather History for Andover, NJ

Change the Weather History Date:

Monday, June 23, 2014

  Actual Average (KFWN) Record (KFWN)
Temperature  
Mean Temperature 66 °F -  
Max Temperature 80 °F 79 °F 94 °F (1988)
Min Temperature 54 °F 54 °F 40 °F (1992)
Cooling Degree Days 2    
Growing Degree Days 16 (Base 50)    
Moisture  
Dew Point 59 °F    
Average Humidity 74    
Maximum Humidity 97    
Minimum Humidity 54    
Precipitation  
Precipitation 0.00 in - - ()
Sea Level Pressure  
Sea Level Pressure 30.10 in    
Wind  
Wind Speed 2 mph (SW)    
Max Wind Speed 7 mph    
Max Gust Speed -    
Averages and records for this station are not official NWS values.
T = Trace of Precipitation, MM = Missing Value Source: NWS Daily Summary

Daily Weather History Graph

Daily Weather History Graph

Search for Another Location

Airport:

Trip Planner

Search our weather history database for the weather conditions in past years. The results will help you decide how hot, cold, wet, or windy it might be!

Date:

Astronomy

Jun. 23, 2014 Rise Set
Actual Time 5:27 AM EDT 8:34 PM EDT
Civil Twilight 4:53 AM EDT 9:08 PM EDT
Nautical Twilight 4:10 AM EDT 9:51 PM EDT
Astronomical Twilight 3:19 AM EDT 10:42 PM EDT
Moon 2:53 AM EDT (6/23) 5:12 PM EDT (6/23)
Length of Visible Light 16h 14m
Length of Day
15h 07m
Waning Crescent, 13% of the Moon is Illuminated
Jun 23
Waning Crescent
Jun 27
New
Jul 5
First Quarter
Jul 12
Full
Jul 18
Last Quarter

Hourly Weather History & Observations

Time (EDT) Temp. Dew Point Humidity Pressure Visibility Wind Dir Wind Speed Gust Speed Precip Events Conditions
12:54 AM 57.9 °F 55.9 °F 93% 30.05 in - Calm Calm - N/A   Unknown
1:54 AM 57.0 °F 55.0 °F 93% 30.05 in - Calm Calm - N/A   Unknown
2:54 AM 55.9 °F 54.0 °F 93% 30.06 in - Calm Calm - N/A   Unknown
3:54 AM 55.9 °F 54.0 °F 93% 30.06 in - Calm Calm - N/A   Unknown
4:54 AM 55.0 °F 54.0 °F 96% 30.06 in - Calm Calm - N/A   Unknown
5:54 AM 54.0 °F 53.1 °F 97% 30.08 in - Calm Calm - N/A   Unknown
6:54 AM 57.0 °F 55.9 °F 96% 30.10 in - Calm Calm - N/A   Unknown
7:54 AM 64.0 °F 59.0 °F 84% 30.11 in - Calm Calm - N/A   Unknown
8:54 AM 68.0 °F 61.0 °F 78% 30.12 in - Variable 3.5 mph - N/A   Unknown
9:54 AM 72.0 °F 61.0 °F 68% 30.12 in - Variable 3.5 mph - N/A   Unknown
10:54 AM 75.0 °F 61.0 °F 62% 30.12 in - Variable 5.8 mph - N/A   Unknown
11:54 AM 78.1 °F 61.0 °F 56% 30.12 in - Variable 5.8 mph - N/A   Unknown
12:54 PM 79.0 °F 61.0 °F 54% 30.11 in - Variable 6.9 mph - N/A   Unknown
1:54 PM 75.9 °F 61.0 °F 60% 30.11 in - SW 4.6 mph - N/A   Unknown
2:54 PM 77.0 °F 60.1 °F 56% 30.11 in - SW 6.9 mph - N/A   Unknown
3:54 PM 78.1 °F 61.0 °F 56% 30.10 in - Variable 4.6 mph - N/A   Unknown
4:54 PM 78.1 °F 61.0 °F 56% 30.10 in - Variable 5.8 mph - N/A   Unknown
5:54 PM 78.1 °F 61.0 °F 56% 30.09 in - Variable 5.8 mph - N/A   Unknown
6:54 PM 77.0 °F 61.0 °F 58% 30.09 in - SW 3.5 mph - N/A   Unknown
7:54 PM 73.9 °F 62.1 °F 66% 30.09 in - Calm Calm - N/A   Unknown
8:54 PM 69.1 °F 63.0 °F 81% 30.09 in - Calm Calm - N/A   Unknown
9:54 PM 66.9 °F 61.0 °F 81% 30.10 in - Calm Calm - N/A   Unknown
10:54 PM 70.0 °F 57.9 °F 65% 30.12 in - Variable 3.5 mph - N/A   Unknown
11:54 PM 66.9 °F 57.0 °F 70% 30.13 in - Calm Calm - N/A   Unknown